Date String (YYYY-MM-DD hh:mm:ss) UTC,Instrument flags,Ambient pressure (hPa),Sample flow (lpm),Bypass flow (lpm),Sample temperature (°C),Ambient temperature (°C),ASC tube jacket temperature (°C),LED temperature (°C),Box temperature (°C),Sample RH (%),Span deviation,Mass concentration (μg/m³),Mass concentration (μg/m³),Mass concentration (μg/m³)
DateTimeUTC,F1_M11,P_M11,Q1_M11,Q2_M11,T1_M11,T2_M11,T3_M11,T4_M11,T5_M11,U1_M11,ZSPAN_M11,X0_M11,X2_M11,X1_M11
2022-07-05 11:00:00,,0826.1,4.99,0.00,29.7,27.7,00.0,38.6,31.4,21.9,0000.0,0005.35,0002.65,0001.96
2022-07-05 11:01:00,,0826.1,5.00,0.00,29.7,27.9,00.0,38.5,31.4,21.9,0000.0,0005.21,0002.57,0001.95
2022-07-05 11:02:00,,0826.1,5.01,0.00,29.7,28.0,00.0,38.5,31.4,21.8,0000.0,0005.25,0002.50,0001.94
2022-07-05 11:03:00,,0826.2,4.99,0.00,29.7,28.1,00.0,38.5,31.4,22.0,0000.0,0004.77,0002.53,0001.96
2022-07-05 11:04:00,,0826.1,5.01,0.00,29.7,28.2,00.0,38.5,31.5,21.9,0000.0,0004.67,0002.54,0001.95
2022-07-05 11:05:00,,0826.2,5.00,0.00,29.7,28.2,00.0,38.5,31.5,21.9,0000.0,0004.72,0002.55,0001.94
2022-07-05 11:06:00,,0826.1,5.00,0.00,29.7,28.3,00.0,38.5,31.5,21.7,0000.0,0004.85,0002.56,0001.94
2022-07-05 11:07:00,,0826.1,4.99,0.00,29.7,28.4,00.0,38.5,31.5,21.7,0000.0,0005.01,0002.62,0001.93
2022-07-05 11:08:00,,0826.0,5.01,0.00,29.7,28.4,00.0,38.5,31.6,21.8,0000.0,0005.02,0002.64,0001.93
2022-07-05 11:09:00,,0826.1,5.00,0.00,29.7,28.5,00.0,38.5,31.6,21.7,0000.0,0005.18,0002.69,0001.94
2022-07-05 11:10:00,,0826.0,5.00,0.00,29.7,28.5,00.0,38.5,31.6,21.8,0000.0,0005.31,0002.77,0001.98
2022-07-05 11:11:00,,0826.0,4.99,0.00,29.8,28.6,00.0,38.5,31.6,21.7,0000.0,0005.42,0002.82,0001.99
2022-07-05 11:12:00,,0826.0,5.00,0.00,29.8,28.6,00.0,38.5,31.7,21.5,0000.0,0005.58,0002.89,0001.99
2022-07-05 11:13:00,,0826.1,5.01,0.00,29.8,28.6,00.0,38.5,31.7,21.5,0000.0,0005.16,0002.93,0001.99
2022-07-05 11:14:00,,0826.1,4.99,0.00,29.8,28.6,00.0,38.6,31.7,21.5,0000.0,0005.47,0002.92,0001.99
2022-07-05 11:15:00,,0826.1,4.99,0.00,29.8,28.7,00.0,38.6,31.7,21.4,0000.0,0005.75,0002.94,0002.00
2022-07-05 11:16:00,,0826.1,4.99,0.00,29.8,28.7,00.0,38.6,31.7,21.5,0000.0,0006.12,0003.05,0002.02
2022-07-05 11:17:00,,0826.1,5.00,0.00,29.8,28.7,00.0,38.6,31.7,21.8,0000.0,0006.27,0003.08,0002.04
2022-07-05 11:18:00,,0826.1,5.00,0.00,29.9,28.8,00.0,38.6,31.8,21.4,0000.0,0006.28,0003.08,0002.06
2022-07-05 11:19:00,,0826.1,5.01,0.00,29.9,28.8,00.0,38.6,31.7,21.4,0000.0,0006.32,0003.05,0002.07
2022-07-05 11:20:00,,0826.1,5.01,0.00,29.9,28.8,00.0,38.6,31.7,21.3,0000.0,0006.59,0003.04,0002.06
2022-07-05 11:21:00,,0826.2,5.00,0.00,29.9,28.8,00.0,38.6,31.8,21.3,0000.0,0006.71,0003.05,0002.05
2022-07-05 11:22:00,,0826.2,4.99,0.00,29.9,28.8,00.0,38.7,31.8,21.2,0000.0,0006.74,0003.08,0002.04
2022-07-05 11:23:00,,0826.2,5.00,0.00,29.9,28.9,00.0,38.7,31.8,21.1,0000.0,0006.78,0003.09,0002.05
2022-07-05 11:24:00,,0826.2,5.00,0.00,30.0,28.9,00.0,38.7,31.8,21.1,0000.0,0006.77,0003.11,0002.05
2022-07-05 11:25:00,,0826.2,4.99,0.00,30.0,28.9,00.0,38.7,31.9,21.1,0000.0,0006.46,0003.12,0002.04
2022-07-05 11:26:00,,0826.2,5.00,0.00,30.0,28.9,00.0,38.7,31.9,21.1,0000.0,0006.45,0003.11,0002.03
2022-07-05 11:27:00,,0826.2,4.99,0.00,30.0,28.9,00.0,38.7,31.9,21.1,0000.0,0006.14,0003.06,0002.05
2022-07-05 11:28:00,,0826.1,5.01,0.00,30.0,28.9,00.0,38.7,31.9,21.1,0000.0,0005.82,0003.00,0002.04
2022-07-05 11:29:00,,0826.2,5.00,0.00,30.0,29.0,00.0,38.8,31.9,21.0,0000.0,0006.01,0002.98,0002.04
2022-07-05 11:30:00,,0826.1,5.00,0.00,30.0,29.0,00.0,38.8,31.9,21.2,0000.0,0005.98,0002.97,0002.03
2022-07-05 11:31:00,,0826.1,5.00,0.00,30.0,29.0,00.0,38.8,31.9,21.2,0000.0,0005.61,0002.95,0002.04
2022-07-05 11:32:00,,0826.2,4.99,0.00,30.1,29.0,00.0,38.8,31.9,21.2,0000.0,0005.24,0002.87,0002.03
2022-07-05 11:33:00,,0826.2,5.01,0.00,30.1,28.6,00.0,38.8,31.9,21.2,0000.0,0005.10,0002.80,0002.03
2022-07-05 11:34:00,,0826.2,5.01,0.00,30.0,27.8,00.0,38.7,31.8,21.1,0000.0,0004.98,0002.76,0002.03
2022-07-05 11:35:00,,0826.1,5.01,0.00,30.0,27.5,00.0,38.7,31.7,21.3,0000.0,0005.00,0002.76,0002.04
2022-07-05 11:36:00,,0826.1,5.00,0.00,29.9,27.5,00.0,38.7,31.5,21.3,0000.0,0004.90,0002.73,0002.03
2022-07-05 11:37:00,,0826.1,5.00,0.00,29.8,27.6,00.0,38.6,31.5,21.3,0000.0,0004.47,0002.68,0002.04
2022-07-05 11:38:00,,0826.2,4.99,0.00,29.8,27.7,00.0,38.6,31.4,21.3,0000.0,0004.45,0002.66,0002.02
2022-07-05 11:39:00,,0826.2,5.00,0.00,29.7,27.8,00.0,38.6,31.5,21.3,0000.0,0004.37,0002.59,0001.98
2022-07-05 11:40:00,,0826.2,5.00,0.00,29.7,27.9,00.0,38.6,31.5,21.4,0000.0,0004.01,0002.53,0001.96
2022-07-05 11:41:00,,0826.2,4.99,0.00,29.7,28.0,00.0,38.6,31.5,21.4,0000.0,0003.90,0002.53,0001.95
2022-07-05 11:42:00,,0826.2,5.00,0.00,29.7,28.1,00.0,38.6,31.5,21.4,0000.0,0005.17,0002.49,0001.93
2022-07-05 11:43:00,,0826.2,5.00,0.00,29.7,28.2,00.0,38.6,31.5,21.4,0000.0,0005.36,0002.53,0001.93
2022-07-05 11:44:00,,0826.2,5.00,0.00,29.7,28.3,00.0,38.6,31.5,21.5,0000.0,0005.48,0002.55,0001.91
2022-07-05 11:45:00,,0826.2,5.00,0.00,29.7,28.4,00.0,38.6,31.6,21.5,0000.0,0005.59,0002.55,0001.91
2022-07-05 11:46:00,,0826.2,5.00,0.00,29.7,28.4,00.0,38.6,31.6,21.5,0000.0,0005.41,0002.47,0001.89
2022-07-05 11:47:00,,0826.2,5.00,0.00,29.8,28.5,00.0,38.6,31.6,21.4,0000.0,0005.58,0002.51,0001.88
2022-07-05 11:48:00,,0826.2,4.99,0.00,29.8,28.6,00.0,38.6,31.6,21.6,0000.0,0005.78,0002.57,0001.87
2022-07-05 11:49:00,,0826.2,5.00,0.00,29.8,28.6,00.0,38.6,31.6,21.8,0000.0,0005.67,0002.54,0001.87
2022-07-05 11:50:00,,0826.2,5.00,0.00,29.8,28.6,00.0,38.6,31.7,21.9,0000.0,0005.71,0002.56,0001.88
2022-07-05 11:51:00,,0826.2,5.01,0.00,29.8,28.7,00.0,38.6,31.7,21.9,0000.0,0005.74,0002.61,0001.89
2022-07-05 11:52:00,,0826.2,5.00,0.00,29.8,28.7,00.0,38.6,31.7,21.9,0000.0,0005.75,0002.60,0001.91
2022-07-05 11:53:00,,0826.2,5.00,0.00,29.9,28.7,00.0,38.6,31.7,21.8,0000.0,0004.48,0002.62,0001.93
2022-07-05 11:54:00,,0826.2,5.00,0.00,29.9,28.8,00.0,38.6,31.7,21.7,0000.0,0004.39,0002.63,0001.92
2022-07-05 11:55:00,,0826.2,4.99,0.00,29.9,28.8,00.0,38.6,31.8,21.7,0000.0,0004.36,0002.66,0001.94
2022-07-05 11:56:00,,0826.2,5.00,0.00,29.9,28.8,00.0,38.6,31.8,21.8,0000.0,0004.22,0002.64,0001.95
2022-07-05 11:57:00,,0826.2,5.00,0.00,29.9,28.8,00.0,38.6,31.8,21.7,0000.0,0004.31,0002.69,0001.96
2022-07-05 11:58:00,,0826.2,5.01,0.00,29.9,28.9,00.0,38.7,31.8,21.8,0000.0,0004.14,0002.67,0001.98
2022-07-05 11:59:00,,0826.2,5.00,0.00,29.9,28.9,00.0,38.7,31.8,22.0,0000.0,0004.04,0002.64,0001.99
